Regional Weather Roundup
Issued by NWS Goodland, KS

Home | Current Version | Previous Version | Graphics & Text | Print | Product List | Glossary On
Versions: 1 2 3 4 5 6 7 8 9 10 11 12 13 14 15 16 17 18 19 20 21 22 23 24 25 26 27 28 29 30 31 32 33 34 35 36 37 38 39 40 41 42 43 44 45 46 47 48 49 50
000
ASUS43 KGLD 300908
RWRGLD

GOODLAND FORECAST AREA HOURLY WEATHER ROUNDUP
NATIONAL WEATHER SERVICE GOODLAND KS
300 AM MDT TUE AUG 30 2016

...OFFICIAL OBSERVATIONS...

CITY           SKY/WX    TMP DP  RH WIND       PRES   REMARKS
GOODLAND KS    PTCLDY    62  60  93 S6        30.26S
HILL CITY KS   MOCLDY    67  65  93 CALM      30.21S
IMPERIAL NEB   CLOUDY    65  62  90 W3        30.26R
MCCOOK NEB     CLOUDY    68  66  93 E3        30.22S FOG
AKRON CO       PTCLDY    60  51  72 SW9       30.31R
BURLINGTON CO  CLOUDY    60  58  92 W5        30.29S
LIMON CO       CLOUDY    55  50  83 CALM      30.36R
$$

...UNOFFICIAL OBSERVATIONS...

CITY           SKY/WX    TMP DP  RH WIND       PRES   REMARKS
COLBY KS       CLEAR     63  63 100 CALM      30.25F
LENORA KS        N/A     66  32  28 MISG        N/A
NORTON KS      MOCLDY    66  64  94 CALM      30.20S FOG
SHARON SPRINGS   N/A     64  62  94 CALM        N/A
TRENTON NEB      N/A     66  32  28 MISG        N/A
KIT CARSON CO    N/A     62  57  85 CALM        N/A
YUMA CO          N/A     58  55  90 CALM        N/A
$$




USA.gov is the U.S. government's official web portal to all federal, state and local government web resources and services.